Regional Weather Roundup
Issued by NWS Boston, MA

Home | Current Version | Previous Version | Text Only | Print | Product List | Glossary On
Versions: 1 2 3 4 5 6 7 8 9 10 11 12 13 14 15 16 17 18 19 20 21 22 23 24 25 26 27 28 29 30 31 32 33 34 35 36 37 38 39 40 41 42 43 44 45 46 47 48 49 50
000
ASUS41 KBOX 040910
RWRBOX

REGIONAL WEATHER ROUNDUP
NATIONAL WEATHER SERVICE TAUNTON MA
500 AM EDT MON MAY 04 2015

NOTE:  "FAIR" INDICATES FEW OR NO CLOUDS BELOW 12,000 FEET WITH NO
SIGNIFICANT WEATHER AND/OR OBSTRUCTIONS TO VISIBILITY.  THE FOLLOWING
OBSERVATION LOCATIONS DO NOT REPORT PRESENT WEATHER...PROVINCETOWN...
SMITHFIELD...BLOCK ISLAND...KEENE...AND OXFORD.

MAZALL-041000-
EASTERN MASSACHUSETTS

CITY           SKY/WX    TMP DP  RH WIND       PRES   REMARKS
BOSTON         PTCLDY    50  44  80 SW8       30.16S
BEVERLY        CLEAR     50  40  68 CALM      30.14S
LAWRENCE       CLEAR     49  42  77 S6        30.15S
BEDFORD        CLEAR     47  41  80 S7        30.14S
BLUE HILL        N/A     47  44  90 SW16      30.15S
NORWOOD        CLEAR     46  44  93 S5        30.17S
MARSHFIELD     CLEAR     52  48  87 SW8       30.18S
PLYMOUTH       CLEAR     48  47  96 S7        30.19S
TAUNTON        PTCLDY    47  45  93 CALM      30.19R
NEW BEDFORD    CLEAR     47  46  97 S3        30.19S
$$

MAZALL-041000-
CAPE COD AND THE ISLANDS

CITY           SKY/WX    TMP DP  RH WIND       PRES   REMARKS
FALMOUTH       CLEAR     50  48  93 SW8       30.19
HYANNIS        CLEAR     52  48  86 S9        30.19R
CHATHAM        CLEAR     50  47  89 SW8       30.21S
PROVINCETOWN   CLEAR     50  46  87 S13       30.19S
NANTUCKET      CLEAR     49  45  86 SW7       30.22R
MARTHAS VNYRD  CLEAR    N/A N/A N/A SW7       30.21R
$$

MAZALL-041000-
CENTRAL AND WESTERN MASSACHUSETTS

CITY           SKY/WX    TMP DP  RH WIND       PRES   REMARKS
WORCESTER      CLEAR     57  37  47 W14       30.16S
FITCHBURG      CLEAR     56  41  57 VRB5      30.15S
ORANGE         CLEAR     42  41  96 CALM      30.17R
SPRINGFIELD    CLEAR     44  42  95 NE3       30.16S
WESTFIELD      CLEAR     45  42  89 CALM      30.17R
NORTH ADAMS    CLEAR     41  38  89 CALM      30.17R
PITTSFIELD     CLEAR     44  41  89 CALM      30.16S
$$

RIZALL-041000-
RHODE ISLAND

CITY           SKY/WX    TMP DP  RH WIND       PRES   REMARKS
PROVIDENCE     CLEAR     46  44  93 S6        30.19S
NEWPORT        CLEAR     47  45  93 S6        30.19S
BLOCK ISLAND   CLEAR     48  45  87 SW12      30.20S
SMITHFIELD     PTCLDY    43  36  75 S3        30.17S
WESTERLY       CLEAR     42  40  92 CALM      30.20S
$$

CTZALL-041000-
CONNECTICUT

CITY           SKY/WX    TMP DP  RH WIND       PRES   REMARKS
BRADLEY INTL   PTCLDY    48  43  82 CALM      30.16S
HARTFORD       CLEAR     47  32  56 SE8       30.17S
BRIDGEPORT     CLEAR     49  46  90 CALM      30.18S
DANBURY        CLEAR     44  38  79 SW3       30.19R
GROTON         PTCLDY    44  42  93 CALM      30.20R FOG
NEW HAVEN      CLEAR     45  43  93 CALM      30.18S
CHESTER        NOT AVBL
MERIDEN        CLEAR     44  41  89 CALM      30.18S
WILLIMANTIC    CLEAR     43  40  89 CALM      30.19S
OXFORD         MOCLDY    48  39  71 CALM      30.20R
$$

MEZ002-015-021-024-NHZ003-005-008-011-012-014-VTZ005-008-041000-
NORTHERN NEW ENGLAND

CITY           SKY/WX    TMP DP  RH WIND       PRES   REMARKS
PORTLAND ME    PTCLDY    43  40  89 CALM      30.13R
BANGOR ME      PTCLDY    38  37  97 CALM      30.12S
CONCORD NH     CLEAR     46  42  86 CALM      30.14R
MANCHESTER NH  PTCLDY    50  42  74 CALM      30.13R
NASHUA NH      CLEAR     47  44  89 CALM      30.15R
PORTSMOUTH NH  PTCLDY    47  42  81 SW3       30.12R
JAFFREY NH     CLEAR     45  42  89 S6        30.17R
KEENE NH       CLEAR     45  43  93 CALM      30.17S
BURLINGTON VT  MOCLDY    51  40  65 CALM      30.09S
MT. WASHINGTON PTCLDY    39  28  65 NW24        N/A  WCI  28
$$

NYZ052-076-041000-
EASTERN NEW YORK

CITY           SKY/WX    TMP DP  RH WIND       PRES   REMARKS
ALBANY         PTCLDY    59  39  47 S5        30.14R
NEW YORK CITY  CLEAR     56  46  69 S3        30.17R
$$

ANZALL-041000-
MARINE OBSERVATIONS

STATION/POSITION TIME  TEMP    WIND        PRES    VSBY  WAVE
                       AIR SEA DIR/SP/G                  HT/PER
                 (UTC) (F)     (DEG/KT/KT) (MB)    (MI)  (FT/S)
BOSTON BUOY      0850   48 46  200/  8/ 10   N/A           2/11
BUZZARDS BAY     0900          190/ 13/ 14   N/A
NANTUCKET SOUND  0850   51 47  210/ 10/ 12   N/A           1/11
MASS BAY-STELLWA 0804   48 47  210/ 12/ 12   N/A    1 7/8  3/ 8
ISLE OF SHOALS   0900   51     220/ 10/ 10   N/A
S OF BLOCK IS    0808      46                N/A           3/ 8
$$

......................KEY.........................
  SKY/WX - SKY CONDITION/PRESENT WEATHER
  TMP    - TEMPERATURE IN FAHRENHEIT
  DWPT   - DEWPOINT IN FAHRENHEIT
  RH     - RELATIVE HUMIDITY IN PERCENT
  WIND   - DIRECTION AND SPEED IN MPH
  PRES   - MEAN SEA LEVEL PRESSURE IN INCHES OF HG
  WCI    - WIND CHILL INDEX
  VSB    - VISIBILITY IN MILES
  HX     - HEAT INDEX
  TC     - TEMPERATURE IN CELSIUS
  VRB    - VARIABLE WIND DIRECTION
  N/A    - NOT AVAILABLE



USA.gov is the U.S. government's official web portal to all federal, state and local government web resources and services.